IkaScore Players IkaScore Alliances






Support IkaScore

Please donate to
me@ikascore.com

using Skrill
Portugal Lambda
Ikariam players: 50
AverageTotal
Pontuação total: 8953225 447661234
Mestres de Alvenaria: 7440513 372025648
Níveis de construção: 1662 2408154
Cientistas: 339344 491709197
Níveis de pesquisa: 219 317392
Generais: 5589 8099162
Ouro: 191773158 1342412103
Pontos Ofensivos: 986 1428770
Pontos Defensivos: 871 1261653
Pontuação comercial: 952 1379248
Recursos: 1301794 1886299460
doar: 129410 187515402
Score vulnerability: 171550 248576035
Gold vulnerability: 1008 1460700
Population: 9932 14392034
Donations to score: 244067 353653212

Digg! Delicious! IkaScore homepage
Players - Pontuação comercial
  per page  Next page >>
Rank Ikariam player Alliance Score Type Score Updated
1 Conquistador de Hércules Piton Pontuação comercial 70376 20/02 08:10
2 Prototiko_ -BCM- Pontuação comercial 67337 20/02 08:10
Support IkaScore

Please donate to    me@ikascore.com    using Skrill
3 Génio TUGA E-T Pontuação comercial 64605 20/02 08:10
4 Rommel _ATM_ Pontuação comercial 63468 20/02 08:10
5 FlamengoRJ BAlto Pontuação comercial 46887 20/02 08:10
6 Martelo dos Bárbaros dredi5 hell Pontuação comercial 46029 20/02 08:10
7 Cosa Nostra BAlto Pontuação comercial 42673 20/02 08:10
8 FilipeSilva BAlto Pontuação comercial 38618 20/02 08:10
9 c4rlos _ATM_ Pontuação comercial 36311 20/02 08:10
10 Carrie Pontuação comercial 30969 20/02 08:10
11 Kathy kkk Pontuação comercial 30546 20/02 08:10
12 Victorinox BAlto Pontuação comercial 29560 20/02 08:10
13 Drone Eye _ATM_ Pontuação comercial 29328 20/02 08:10
14 Criador de Milagres Héstia _ATM_ Pontuação comercial 29150 20/02 08:10
15 Embaixador VIOLENTO Pontuação comercial 28824 20/02 08:10
16 Génio 100-Gaz _ATM_ Pontuação comercial 28116 20/02 08:10
17 Conquistador de Hércules TSUNAMI_ XXX Pontuação comercial 27081 20/02 08:10
18 Rei do Negócio de Armas Strike Pontuação comercial 25834 20/02 08:10
19 Detetive I AM Dragon _ATM_ Pontuação comercial 25319 20/02 08:10
20 Replicator _ATM_ Pontuação comercial 23159 20/02 08:10
21 Imperador Bruthus _ATM_ Pontuação comercial 23123 20/02 08:10
22 Rato de Laboratório Insurreto -BCM- Pontuação comercial 20896 20/02 08:10
23 camisial hell Pontuação comercial 20879 20/02 08:10
24 DuarteM SOLD Pontuação comercial 20649 20/02 08:10
25 El Baron _ATM_ Pontuação comercial 20161 20/02 08:10
26 D Diogo BAlto Pontuação comercial 19839 20/02 08:10
27 Riquinho -MKS- Pontuação comercial 18923 20/02 08:10
28 LiNgRiNhAs E-T Pontuação comercial 18575 20/02 08:10
29 Karkassa o Huno E-T Pontuação comercial 17624 20/02 08:10
30 100tempo E-T Pontuação comercial 17605 20/02 08:10
31 TALOCHAS Pontuação comercial 16077 20/02 08:10
32 Casper E-T Pontuação comercial 15203 20/02 08:10
33 Tintura SOLD Pontuação comercial 13533 20/02 08:10
34 BRAINSTORM Pontuação comercial 11848 20/02 08:10
35 Guro Pontuação comercial 11624 20/02 08:10
36 PlastikMan E-T Pontuação comercial 11505 20/02 08:10
37 tokinho Pontuação comercial 10711 20/02 08:10
38 MBkimo -BCM- Pontuação comercial 10606 20/02 08:10
39 αKα мαηø E-T Pontuação comercial 10562 20/02 08:10
40 morteiro Pontuação comercial 10214 20/02 08:10
41 Joc San E-T Pontuação comercial 9938 20/02 08:10
42 Descendente de Apolo Gasosa _ATM_ Pontuação comercial 9319 20/02 08:10
43 HACKBART Pontuação comercial 9287 20/02 08:10
44 BAZINGA WIN Pontuação comercial 8400 20/02 08:10
45 Bruce Lee Jr Pontuação comercial 8393 20/02 08:10
46 Mulambo Pontuação comercial 7980 20/02 08:10
47 ministrodasaude B_A Pontuação comercial 7911 20/02 08:10
48 ebola -MKS- Pontuação comercial 6681 20/02 08:10
49 Matcap A_S Pontuação comercial 6659 20/02 08:10
50 Iron Man E-T Pontuação comercial 6343 20/02 08:10
51 Ratazana -BCM- Pontuação comercial 6173 20/02 08:10
52 Governador megmax E-T Pontuação comercial 5956 20/02 08:10
53 Aramis Pontuação comercial 5724 20/02 08:10
54 O Iluminado Atila _ATM_ Pontuação comercial 5582 20/02 08:10
55 Metallic E-T Pontuação comercial 4769 20/02 08:10
56 Dom PECATO iLL Pontuação comercial 4477 20/02 08:10
57 Rei do Negócio de Armas ricaatc Pontuação comercial 4403 20/02 08:10
58 isabel29 -MKS- Pontuação comercial 4370 20/02 08:10
59 007 1 Team 1 Family XXX Pontuação comercial 4331 20/02 08:10
60 lucifer666 hell Pontuação comercial 4328 20/02 08:10
61 karrasco Pontuação comercial 4286 20/02 08:10
62 longoni VSOL Pontuação comercial 4203 20/02 08:10
63 Hermes Pontuação comercial 4035 20/02 08:10
64 Conquistador de Hércules DanielMarx XXX Pontuação comercial 4011 20/02 08:10
65 Vykos -X- Pontuação comercial 3885 20/02 08:10
66 SendO -X- Pontuação comercial 3550 20/02 08:10
67 santal29 -MKS- Pontuação comercial 3465 20/02 08:10
68 LMPG -BCM- Pontuação comercial 3401 20/02 08:10
69 PIORIMPOSSIVEL E-T Pontuação comercial 3374 20/02 08:10
70 PEGAVES Pontuação comercial 3355 20/02 08:10
71 PM2015 Pontuação comercial 3262 20/02 08:10
72 Rufuxinder LWT Pontuação comercial 3164 20/02 08:10
73 Tsantos E-T Pontuação comercial 2850 20/02 08:10
74 ferrari_ _ATM_ Pontuação comercial 2823 20/02 08:10
75 Amante de Arte REYPOLHO -X- Pontuação comercial 2733 20/02 08:10
76 LORDARCANJO -MKS- Pontuação comercial 2554 20/02 08:10
77 Mdias Pontuação comercial 2280 20/02 08:10
78 Criador de Milagres sayron XXX Pontuação comercial 2177 20/02 08:10
79 Domingos1 SSL Pontuação comercial 2064 20/02 08:10
80 Yabuzaa LWT Pontuação comercial 2043 20/02 08:10
81 Criador de Milagres Henrikke XXX Pontuação comercial 2033 20/02 08:10
82 katana -X- Pontuação comercial 1985 20/02 08:10
83 ZYTHUM -BCM- Pontuação comercial 1926 20/02 08:10
84 caça espioes solit Pontuação comercial 1851 20/02 08:10
85 always plan ahe -X- Pontuação comercial 1835 20/02 08:10
86 ballzaer -MKS- Pontuação comercial 1813 20/02 08:10
87 Sir_R -X- Pontuação comercial 1782 20/02 08:10
88 toma -MKS- Pontuação comercial 1630 20/02 08:10
89 Arquitecto Intelectual LB Metralhas Pontuação comercial 1627 20/02 08:10
90 Rato de Laboratório Falcon wind Pontuação comercial 1607 20/02 08:10
91 DnaSoul SOLD Pontuação comercial 1588 20/02 08:10
92 ricardinho15 Pontuação comercial 1522 20/02 08:10
93 Martelo dos Bárbaros crowgomes XXX Pontuação comercial 1484 20/02 08:10
94 TURCO6 Pontuação comercial 1458 20/02 08:10
95 Conquistador de Hércules indio -BCM- Pontuação comercial 1399 20/02 08:10
96 Patrono gordo69 hell Pontuação comercial 1385 20/02 08:10
97 Odim71 -X- Pontuação comercial 1354 20/02 08:10
98 iNgSoUl -MKS- Pontuação comercial 1285 20/02 08:10
99 Cesare BAlto Pontuação comercial 1273 20/02 08:10
100 Barca LWT Pontuação comercial 1245 20/02 08:10
  per page  Next page >>

Copyright © 2010 IkaScore.com All Rights Reserved | Disclaimer